Location: Arrodets-la-Barthe
(43.0306°N, 0.2829°E)
Time: 01:45:45
(UTC+00:00)

DUCHIFAT 1 - Pass Details

Date: 02 April 2023
Orbit: 567 x 581 km, 98.1° (Epoch: 29 May)

Event Time Altitude Azimuth Distance (km) Brightness Sun altitude
Rises 03:09:31 0° 14° (NNE) 2,790 ? -26.3°
Reaches altitude 10° 03:11:41 10° 17° (NNE) 1,885 ? -25.9°
Enters shadow 03:15:18 65° 50° (NE) 631 ? -25.4°
